Preview of NWS' New Version of Forecast
This preview is not operational and should not be used for support decisions.

Regional Weather Roundup (RWR)

Issued by National Weather Service (NWS)

                            
000
ASUS43 KLSX 180807
RWRMO 

WEATHER SUMMARY FOR MISSOURI
NATIONAL WEATHER SERVICE SPRINGFIELD MO
300 AM CDT SAT MAY 18 2019

NOTE: "FAIR" INDICATES FEW OR NO CLOUDS BELOW 12,000 FEET WITH NO
       SIGNIFICANT WEATHER AND/OR OBSTRUCTIONS TO VISIBILITY.
       CURRENT SKY AND/OR WEATHER CONDITIONS ARE NOT AVAILABLE FOR
       CHILLICOTHE AND FARMINGTON.

MOZ001>031-035>038-043-044-053-054-180900-
...NORTHERN AND WESTERN MISSOURI...
  
CITY           SKY/WX    TMP DP  RH WIND       PRES   REMARKS
KANSAS CTY INT MOCLDY    71  60  68 S16G29    29.66F                  
KANSAS C DTWN  CLOUDY    73  57  57 S15G26    29.65F                  
LEE'S SUMMIT   PTCLDY    71  56  58 S20G28    29.68F                  
ST JOSEPH      CLOUDY    74  62  66 S17G26    29.65S                  
CHILLICOTHE      N/A     71  57  61 S8G20     29.70F                  
KIRKSVILLE     CLEAR     67  59  75 S9        29.74S                  
     
$$
MOZ066>068-077>081-088>096-101>105-180900-
...SOUTHWEST MISSOURI...
  
CITY           SKY/WX    TMP DP  RH WIND       PRES   REMARKS
SPRINGFIELD    CLEAR     67  55  65 S10       29.78S                  
JOPLIN         CLEAR     71  59  65 S15G23    29.73F                  
BRANSON        CLEAR     68  55  64 S8        29.82S                  
               
$$
MOZ032>034-039>042-045>050-055>058-069>072-180900-
...CENTRAL MISSOURI...  
  
CITY           SKY/WX    TMP DP  RH WIND       PRES   REMARKS
COLUMBIA       CLEAR     67  58  72 S8        29.78S                  
JEFFERSON CITY CLEAR     70  58  65 SE7       29.77F                  
ROLLA          PTCLDY    69  56  62 S10       29.82S                  
SEDALIA        CLEAR     64  56  75 S10       29.76S                  
WHITEMAN AFB   PTCLDY    68  58  71 S12       29.68F                  
WARRENSBURG    CLEAR     68  55  64 S9        29.70F                  
OSAGE BEACH    CLEAR     66  59  78 S6        29.79S                  
               
$$
MOZ051-052-059>065-180900-
...EAST CENTRAL MISSOURI...
  
CITY           SKY/WX    TMP DP  RH WIND       PRES   REMARKS
ST LOUIS INTL  CLEAR     72  59  63 S7        29.83S                  
SPIRIT OF STL  CLEAR     72  60  66 S6        29.81S                  
ST CHARLES     CLEAR     71  60  68 S6        29.81S                  
                   
$$
MOZ072>076-082>087-097>100-106>115-180900-
...SOUTH CENTRAL AND SOUTHEAST MISSOURI...
  
CITY           SKY/WX    TMP DP  RH WIND       PRES   REMARKS
CAPE GIRARDEAU FAIR      73  62  68 S10       29.87S                  
FARMINGTON     CLEAR     65  59  81 S5        29.87S                  
POPLAR BLUFF   FAIR      70  63  78 S7        29.86S                  
WEST PLAINS    PTCLDY    69  57  65 S9        29.85F                  
                                       
$$